FW8305 Weather Reports


time (UTC)temp
C
wind
direction
speed
KPH
gust
KPH
rain 1hr
cm
rain 24hr
cm
rain mn
cm
humidity
%
barometer
mb
20260906172521 33 47 9.7 24.1 0.00 0.00 0.00 66 1016.7
20260906172018 32 42 11.3 24.1 0.00 0.00 0.00 67 1016.6
20260906171539 32 33 12.9 24.1 0.00 0.00 0.00 67 1016.8
20260906171018 32 70 8.0 19.3 0.00 0.00 0.00 68 1016.9
20260906170518 32 36 9.7 16.1 0.00 0.00 0.00 68 1016.8
20260906170033 32 16 9.7 17.7 0.00 0.00 0.00 68 1016.9
20260906165519 32 39 11.3 17.7 0.00 0.00 0.00 68 1017.0
20260906165019 32 43 8.0 17.7 0.00 0.00 0.00 68 1017.0
20260906164534 32 32 8.0 16.1 0.00 0.00 0.00 70 1017.1
20260906164021 32 30 9.7 16.1 0.00 0.00 0.00 70 1017.1
20260906163520 32 41 8.0 14.5 0.00 0.00 0.00 70 1017.0
20260906163036 32 49 6.4 11.3 0.00 0.00 0.00 70 1017.0
20260906162517 31 65 4.8 12.9 0.00 0.00 0.00 71 1017.1
20260906162020 31 65 6.4 12.9 0.00 0.00 0.00 69 1017.0
20260906161547 31 34 4.8 9.7 0.00 0.00 0.00 72 1017.1
20260906161016 31 57 1.6 8.0 0.00 0.00 0.00 75 1017.0
20260906160516 31 34 3.2 9.7 0.00 0.00 0.00 72 1016.9
20260906160036 30 96 4.8 12.9 0.00 0.00 0.00 73 1016.9
20260906155520 30 107 4.8 12.9 0.00 0.00 0.00 74 1016.9
20260906155015 30 47 8.0 12.9 0.00 0.00 0.00 74 1016.8
20260906154533 30 60 1.6 11.3 0.00 0.00 0.00 74 1016.8
20260906154021 30 82 4.8 11.3 0.00 0.00 0.00 75 1016.8
20260906153517 30 79 6.4 11.3 0.00 0.00 0.00 75 1017.0
20260906153044 30 73 4.8 9.7 0.00 0.00 0.00 77 1016.8
20260906152518 30 99 4.8 11.3 0.00 0.00 0.00 76 1017.0
20260906152016 29 95 4.8 16.1 0.00 0.00 0.00 77 1016.8
20260906151535 29 148 6.4 16.1 0.00 0.00 0.00 77 1016.7
20260906151019 29 49 4.8 11.3 0.00 0.00 0.00 77 1016.8
20260906150518 29 126 4.8 9.7 0.00 0.00 0.00 78 1016.7
20260906150037 28 42 4.8 9.7 0.00 0.00 0.00 78 1016.7
20260906145520 28 40 6.4 11.3 0.00 0.00 0.00 78 1016.7
20260906145018 28 113 6.4 11.3 0.00 0.00 0.00 79 1016.8
20260906144536 28 80 6.4 11.3 0.00 0.00 0.00 79 1016.7
20260906144018 28 45 4.8 11.3 0.00 0.00 0.00 79 1016.8
20260906143518 28 54 3.2 8.0 0.00 0.00 0.00 80 1016.7
20260906143034 28 124 3.2 11.3 0.00 0.00 0.00 80 1016.7
20260906142516 28 96 4.8 11.3 0.00 0.00 0.00 81 1016.7
20260906142023 27 117 6.4 11.3 0.00 0.00 0.00 81 1016.6
20260906141533 27 108 4.8 11.3 0.00 0.00 0.00 82 1016.6
20260906141020 27 76 6.4 12.9 0.00 0.00 0.00 81 1016.6
20260906140520 27 36 6.4 14.5 0.00 0.00 0.00 82 1016.6
20260906140035 27 154 6.4 14.5 0.00 0.00 0.00 83 1016.5
20260906135519 27 101 6.4 12.9 0.00 0.00 0.00 83 1016.5
20260906135017 26 42 8.0 14.5 0.00 0.00 0.00 83 1016.5
20260906134531 26 89 4.8 14.5 0.00 0.00 0.00 83 1016.5
20260906134016 26 123 6.4 12.9 0.00 0.00 0.00 83 1016.5
20260906133517 26 84 6.4 12.9 0.00 0.00 0.00 84 1016.4
20260906133041 26 96 6.4 14.5 0.00 0.00 0.00 84 1016.5
20260906132521 26 101 6.4 14.5 0.00 0.00 0.00 84 1016.5
20260906132017 26 68 6.4 14.5 0.00 0.00 0.00 84 1016.4
20260906131543 26 46 6.4 11.3 0.00 0.00 0.00 84 1016.5
20260906131021 26 82 1.6 9.7 0.00 0.00 0.00 85 1016.3
20260906130519 25 0 3.2 9.7 0.00 0.00 0.00 85 1016.3
20260906130040 25 58 1.6 8.0 0.00 0.00 0.00 86 1016.2
20260906125517 25 49 4.8 6.4 0.00 0.00 0.00 87 1016.2
20260906125019 25 58 3.2 6.4 0.00 0.00 0.00 87 1016.2
20260906124534 25 58 1.6 4.8 0.00 0.00 0.00 86 1016.1
20260906124018 25 61 1.6 4.8 0.00 0.00 0.00 86 1016.1
20260906123518 24 0 0.0 1.6 0.00 0.00 0.00 87 1016.0
20260906123037 24 0 0.0 1.6 0.00 0.00 0.00 87 1015.9
20260906122519 24 0 0.0 1.6 0.00 0.00 0.00 86 1015.9
20260906122020 24 0 0.0 1.6 0.00 0.00 0.00 87 1015.9
20260906121537 23 0 0.0 1.6 0.00 0.00 0.00 87 1015.8
20260906121028 23 0 0.0 1.6 0.00 0.00 0.00 87 1015.8
20260906120519 23 0 0.0 1.6 0.00 0.00 0.00 87 1015.7
20260906120034 23 0 0.0 1.6 0.00 0.00 0.00 87 1015.6
20260906115518 23 0 0.0 1.6 0.00 0.00 0.00 87 1015.6
20260906115017 23 0 0.0 0.0 0.00 0.00 0.00 86 1015.5
20260906114544 23 0 0.0 1.6 0.00 0.00 0.00 87 1015.5
20260906114017 23 0 0.0 1.6 0.00 0.00 0.00 87 1015.4
20260906113518 23 0 0.0 1.6 0.00 0.00 0.00 87 1015.4
20260906113036 23 56 0.0 1.6 0.00 0.00 0.00 88 1015.5
20260906112518 23 0 0.0 0.0 0.00 0.00 0.00 87 1015.4
20260906112020 23 0 0.0 0.0 0.00 0.00 0.00 87 1015.5
20260906111542 23 0 0.0 0.0 0.00 0.00 0.00 87 1015.5
20260906111018 23 0 0.0 0.0 0.00 0.00 0.00 86 1015.4
20260906110516 23 0 0.0 0.0 0.00 0.00 0.00 86 1015.4
20260906110031 23 0 0.0 1.6 0.00 0.00 0.00 86 1015.4
20260906105518 23 0 0.0 1.6 0.00 0.00 0.00 86 1015.4
20260906105018 23 0 0.0 0.0 0.00 0.00 0.00 86 1015.5
20260906104537 23 0 0.0 0.0 0.00 0.00 0.00 86 1015.4
20260906104018 23 0 0.0 0.0 0.00 0.00 0.00 86 1015.3
20260906103516 23 0 0.0 0.0 0.00 0.00 0.00 86 1015.4
20260906103033 23 0 0.0 0.0 0.00 0.00 0.00 87 1015.3
20260906102523 22 0 0.0 0.0 0.00 0.00 0.00 87 1015.3
20260906102019 22 0 0.0 0.0 0.00 0.00 0.00 86 1015.3
20260906101537 23 0 0.0 0.0 0.00 0.00 0.00 86 1015.2
20260906101019 23 0 0.0 0.0 0.00 0.00 0.00 86 1015.2
20260906100520 23 0 0.0 0.0 0.00 0.00 0.00 86 1015.2
20260906100037 23 0 0.0 0.0 0.00 0.00 0.00 86 1015.1
20260906095520 23 0 0.0 0.0 0.00 0.00 0.00 86 1015.1
20260906095019 23 0 0.0 0.0 0.00 0.00 0.00 86 1015.1
20260906094541 23 0 0.0 0.0 0.00 0.00 0.00 85 1015.0
20260906094020 23 0 0.0 0.0 0.00 0.00 0.00 85 1015.0
20260906093518 23 0 0.0 0.0 0.00 0.00 0.00 85 1015.0
20260906093036 23 0 0.0 0.0 0.00 0.00 0.00 84 1014.9
20260906092518 23 0 0.0 0.0 0.00 0.00 0.00 84 1014.9
20260906092020 23 0 0.0 0.0 0.00 0.00 0.00 84 1014.8
20260906091536 23 0 0.0 0.0 0.00 0.00 0.00 85 1014.7
20260906091018 23 0 0.0 0.0 0.00 0.00 0.00 85 1014.7
20260906090519 23 0 0.0 0.0 0.00 0.00 0.00 84 1014.7
20260906090047 23 0 0.0 0.0 0.00 0.00 0.00 84 1014.7
20260906085518 23 0 0.0 0.0 0.00 0.00 0.00 84 1014.6
20260906085018 23 0 0.0 0.0 0.00 0.00 0.00 84 1014.6
20260906084536 23 0 0.0 0.0 0.00 0.00 0.00 83 1014.6
20260906084021 23 0 0.0 0.0 0.00 0.00 0.00 83 1014.5
20260906083516 23 0 0.0 0.0 0.00 0.00 0.00 83 1014.6
20260906083042 23 0 0.0 0.0 0.00 0.00 0.00 83 1014.5
20260906082519 23 0 0.0 0.0 0.00 0.00 0.00 83 1014.4
20260906082018 23 0 0.0 3.2 0.00 0.00 0.00 83 1014.5
20260906081533 23 0 0.0 3.2 0.00 0.00 0.00 83 1014.4
20260906081021 23 62 3.2 3.2 0.00 0.00 0.00 83 1014.3
20260906080518 23 63 1.6 3.2 0.00 0.00 0.00 83 1014.2
20260906080039 23 72 1.6 3.2 0.00 0.00 0.00 84 1014.3
20260906075516 23 60 0.0 1.6 0.00 0.00 0.00 85 1014.4
20260906075018 22 0 0.0 0.0 0.00 0.00 0.00 84 1014.3
20260906074535 23 0 0.0 0.0 0.00 0.00 0.00 84 1014.4
20260906074016 23 0 0.0 0.0 0.00 0.00 0.00 83 1014.3
20260906073517 23 0 0.0 0.0 0.00 0.00 0.00 83 1014.4
20260906073037 23 0 0.0 0.0 0.00 0.00 0.00 83 1014.5
20260906072519 23 0 0.0 0.0 0.00 0.00 0.00 83 1014.4
20260906072020 23 0 0.0 0.0 0.00 0.00 0.00 82 1014.5
20260906071534 23 0 0.0 0.0 0.00 0.00 0.00 82 1014.6
20260906071017 23 0 0.0 0.0 0.00 0.00 0.00 82 1014.6
20260906070515 23 0 0.0 0.0 0.00 0.00 0.00 81 1014.7
20260906070035 23 0 0.0 0.0 0.00 0.00 0.00 82 1014.8
20260906065518 23 0 0.0 0.0 0.00 0.00 0.00 83 1014.8
20260906065018 23 0 0.0 0.0 0.00 0.00 0.00 84 1014.8
20260906064535 23 0 0.0 0.0 0.00 0.00 0.00 85 1014.8
20260906064016 22 0 0.0 0.0 0.00 0.00 0.00 85 1015.0
20260906063520 23 0 0.0 0.0 0.00 0.00 0.00 84 1014.9
20260906063034 23 0 0.0 0.0 0.00 0.00 0.00 84 1014.9
20260906062521 23 0 0.0 0.0 0.00 0.00 0.00 84 1015.0
20260906062019 23 0 0.0 0.0 0.00 0.00 0.00 84 1014.9
20260906061534 23 0 0.0 0.0 0.00 0.00 0.00 83 1014.9
20260906061019 23 0 0.0 0.0 0.00 0.00 0.00 84 1015.0
20260906060521 23 0 0.0 0.0 0.00 0.00 0.00 84 1014.9
20260906060035 23 0 0.0 0.0 0.00 0.00 0.00 83 1015.0
20260906055519 23 0 0.0 0.0 0.00 0.00 0.00 82 1015.0
20260906055020 23 0 0.0 0.0 0.00 0.00 0.00 82 1015.0
20260906054537 23 0 0.0 0.0 0.00 0.00 0.00 81 1014.9
20260906054016 24 0 0.0 0.0 0.00 0.00 0.00 81 1015.0
20260906053519 24 0 0.0 0.0 0.00 0.00 0.00 80 1015.1
20260906053035 24 0 0.0 0.0 0.00 0.00 0.00 79 1015.0
20260906052516 25 0 0.0 0.0 0.00 0.00 0.00 79 1015.0
20260906052016 25 0 0.0 0.0 0.00 0.00 0.00 79 1015.0
20260906051537 25 0 0.0 0.0 0.00 0.00 0.00 79 1015.0
20260906051021 25 0 0.0 0.0 0.00 0.00 0.00 78 1015.0
20260906050525 25 0 0.0 0.0 0.00 0.00 0.00 78 1014.9
20260906050035 25 0 0.0 0.0 0.00 0.00 0.00 78 1014.9
20260906045517 25 0 0.0 0.0 0.00 0.00 0.00 78 1014.8
20260906045018 25 0 0.0 0.0 0.00 0.00 0.00 78 1014.9
20260906044534 25 0 0.0 0.0 0.00 0.00 0.00 78 1014.9
20260906044020 25 0 0.0 0.0 0.00 0.00 0.00 78 1014.9
20260906043515 25 0 0.0 0.0 0.00 0.00 0.00 78 1014.9
20260906043035 25 0 0.0 0.0 0.00 0.00 0.00 78 1015.0
20260906042518 25 0 0.0 0.0 0.00 0.00 0.00 79 1015.0
20260906042017 25 0 0.0 0.0 0.00 0.00 0.00 80 1015.0
20260906041535 25 0 0.0 0.0 0.00 0.00 0.00 80 1015.0
20260906041021 25 0 0.0 0.0 0.00 0.00 0.00 79 1015.0
20260906040521 25 0 0.0 0.0 0.00 0.00 0.00 79 1015.0
20260906040035 25 0 0.0 0.0 0.00 0.00 0.00 79 1015.0
20260906035517 25 0 0.0 0.0 0.00 0.00 0.00 80 1014.9
20260906035017 24 0 0.0 0.0 0.00 0.00 0.00 82 1014.9
20260906034551 23 0 0.0 0.0 0.00 0.00 0.00 83 1014.8
20260906034024 23 0 0.0 0.0 0.00 0.00 0.00 83 1014.7
20260906033515 23 0 0.0 0.0 0.00 0.00 0.00 83 1014.7
20260906033035 24 0 0.0 0.0 0.00 0.00 0.00 83 1014.7
20260906032519 24 0 0.0 0.0 0.00 0.00 0.00 83 1014.6
20260906032020 24 0 0.0 0.0 0.00 0.00 0.00 84 1014.5
20260906031534 24 0 0.0 0.0 0.00 0.00 0.00 84 1014.5
20260906031018 24 0 0.0 0.0 0.00 0.00 0.00 84 1014.4
20260906030519 24 0 0.0 0.0 0.00 0.00 0.00 83 1014.5
20260906030035 25 0 0.0 0.0 0.00 0.00 0.00 83 1014.5
20260906025522 25 0 0.0 0.0 0.00 0.00 0.00 83 1014.4
20260906025016 25 0 0.0 0.0 0.00 0.00 0.00 81 1014.5
20260906024539 25 0 0.0 0.0 0.00 0.00 0.00 82 1014.5
20260906024019 25 0 0.0 0.0 0.00 0.00 0.00 81 1014.4
20260906023519 25 0 0.0 0.0 0.00 0.00 0.00 81 1014.3
20260906023032 25 0 0.0 0.0 0.00 0.00 0.00 80 1014.3
20260906022517 25 0 0.0 0.0 0.00 0.00 0.00 80 1014.3
20260906022016 25 0 0.0 0.0 0.00 0.00 0.00 79 1014.1
20260906021541 25 0 0.0 0.0 0.00 0.00 0.00 80 1014.0
20260906021018 25 0 0.0 0.0 0.00 0.00 0.00 80 1014.0
20260906020516 25 0 0.0 0.0 0.00 0.00 0.00 79 1013.9
20260906020036 25 0 0.0 0.0 0.00 0.00 0.00 79 1013.8
20260906015516 25 0 0.0 0.0 0.00 0.00 0.00 78 1013.8
20260906015020 26 0 0.0 0.0 0.00 0.00 0.00 77 1013.7
20260906014538 26 0 0.0 0.0 0.00 0.00 0.00 77 1013.6
20260906014020 26 0 0.0 0.0 0.00 0.00 0.00 76 1013.5
20260906013516 26 0 0.0 0.0 0.00 0.00 0.00 75 1013.6
20260906013036 26 0 0.0 0.0 0.00 0.00 0.00 75 1013.5
20260906012519 26 0 0.0 0.0 0.00 0.00 0.00 74 1013.6
20260906012016 27 0 0.0 0.0 0.00 0.00 0.00 73 1013.5
20260906011535 27 0 0.0 0.0 0.00 0.00 0.00 73 1013.4
20260906011016 27 0 0.0 0.0 0.00 0.00 0.00 72 1013.4
20260906010517 27 0 0.0 0.0 0.00 0.00 0.00 71 1013.4
20260906010041 28 0 0.0 0.0 0.00 0.00 0.00 69 1013.4
20260906005520 28 0 0.0 0.0 0.00 0.00 0.00 68 1013.3
20260906005019 29 0 0.0 0.0 0.00 0.00 0.00 66 1013.3
20260906004534 30 0 0.0 0.0 0.00 0.00 0.00 64 1013.3
20260906004022 30 0 0.0 0.0 0.00 0.00 0.00 63 1013.4
20260906003516 30 0 0.0 0.0 0.00 0.00 0.00 62 1013.3
20260906003034 31 0 0.0 0.0 0.00 0.00 0.00 61 1013.3
20260906002520 31 0 0.0 0.0 0.00 0.00 0.00 59 1013.2
20260906002017 32 0 0.0 0.0 0.00 0.00 0.00 58 1013.3
20260906001548 32 0 0.0 0.0 0.00 0.00 0.00 56 1013.2
20260906001017 32 0 0.0 0.0 0.00 0.00 0.00 55 1013.2
20260906000520 33 0 0.0 0.0 0.00 0.00 0.00 54 1013.3
20260906000037 33 0 0.0 0.0 0.00 0.00 0.00 53 1013.3
20260905235519 34 0 0.0 0.0 0.00 0.00 0.00 51 1013.2
20260905235019 34 0 0.0 4.8 0.00 0.00 0.00 50 1013.2
20260905234537 35 0 0.0 4.8 0.00 0.00 0.00 48 1013.2
20260905234016 35 60 3.2 6.4 0.00 0.00 0.00 47 1013.2
20260905233518 35 29 3.2 6.4 0.00 0.00 0.00 46 1013.2
20260905233035 35 27 1.6 6.4 0.00 0.00 0.00 46 1013.2
20260905232523 35 49 4.8 6.4 0.00 0.00 0.00 45 1013.2
20260905232022 35 0 3.2 6.4 0.00 0.00 0.00 45 1013.2
20260905231534 35 33 4.8 6.4 0.00 0.00 0.00 45 1013.0
20260905231026 35 58 3.2 8.0 0.00 0.00 0.00 43 1013.1
20260905230520 35 352 3.2 8.0 0.00 0.00 0.00 43 1013.2
20260905230038 35 6 4.8 8.0 0.00 0.00 0.00 44 1013.2
20260905225520 36 20 4.8 8.0 0.00 0.00 0.00 43 1013.2
20260905225017 36 15 4.8 9.7 0.00 0.00 0.00 43 1013.1
20260905224535 36 340 4.8 11.3 0.00 0.00 0.00 43 1013.2
20260905224018 36 29 6.4 12.9 0.00 0.00 0.00 43 1013.1
20260905223519 36 15 8.0 12.9 0.00 0.00 0.00 43 1013.2
20260905223048 36 30 8.0 16.1 0.00 0.00 0.00 42 1013.1
20260905222523 36 3 8.0 16.1 0.00 0.00 0.00 45 1013.2
20260905222020 36 34 9.7 16.1 0.00 0.00 0.00 43 1013.2
20260905221537 36 11 9.7 16.1 0.00 0.00 0.00 44 1013.2
20260905221019 36 16 9.7 14.5 0.00 0.00 0.00 45 1013.3
20260905220519 36 54 6.4 11.3 0.00 0.00 0.00 42 1013.3
20260905220035 36 20 6.4 14.5 0.00 0.00 0.00 41 1013.4
20260905215516 36 21 4.8 14.5 0.00 0.00 0.00 41 1013.4
20260905215019 36 6 4.8 12.9 0.00 0.00 0.00 42 1013.4
20260905214540 36 17 6.4 12.9 0.00 0.00 0.00 41 1013.5
20260905214020 36 23 4.8 9.7 0.00 0.00 0.00 41 1013.5
20260905213520 36 34 4.8 17.7 0.00 0.00 0.00 40 1013.5
20260905213036 36 12 6.4 17.7 0.00 0.00 0.00 39 1013.5
20260905212519 37 339 1.6 6.4 0.00 0.00 0.00 39 1013.6
20260905212017 37 22 3.2 6.4 0.00 0.00 0.00 39 1013.6
20260905211535 36 20 3.2 14.5 0.00 0.00 0.00 43 1013.7
20260905211016 36 103 4.8 14.5 0.00 0.00 0.00 42 1013.7
20260905210518 36 34 6.4 14.5 0.00 0.00 0.00 44 1013.8
20260905210045 36 58 1.6 14.5 0.00 0.00 0.00 43 1013.8
20260905205519 36 38 8.0 14.5 0.00 0.00 0.00 41 1013.8
20260905205020 36 25 4.8 12.9 0.00 0.00 0.00 43 1013.9
20260905204534 36 19 4.8 12.9 0.00 0.00 0.00 42 1014.0
20260905204017 36 20 8.0 12.9 0.00 0.00 0.00 42 1014.0
20260905203521 36 350 4.8 9.7 0.00 0.00 0.00 42 1014.0
20260905203037 36 19 3.2 9.7 0.00 0.00 0.00 41 1014.1
20260905202518 36 334 4.8 9.7 0.00 0.00 0.00 41 1014.2
20260905202017 36 53 4.8 9.7 0.00 0.00 0.00 42 1014.2
20260905201536 36 354 4.8 9.7 0.00 0.00 0.00 41 1014.2
20260905201017 36 341 4.8 12.9 0.00 0.00 0.00 41 1014.4
20260905200520 36 41 4.8 12.9 0.00 0.00 0.00 42 1014.5
20260905200105 36 18 6.4 12.9 0.00 0.00 0.00 43 1014.6
20260905195520 36 25 1.6 9.7 0.00 0.00 0.00 43 1014.5
20260905195020 36 69 4.8 14.5 0.00 0.00 0.00 43 1014.6
20260905194536 36 0 6.4 14.5 0.00 0.00 0.00 41 1014.8
20260905194018 36 46 6.4 9.7 0.00 0.00 0.00 43 1014.8
20260905193518 36 44 4.8 12.9 0.00 0.00 0.00 44 1014.8
20260905193040 36 55 4.8 12.9 0.00 0.00 0.00 43 1014.9
20260905192516 36 319 3.2 9.7 0.00 0.00 0.00 42 1015.0
20260905192016 36 345 4.8 9.7 0.00 0.00 0.00 43 1015.0
20260905191535 36 360 4.8 9.7 0.00 0.00 0.00 41 1015.0
20260905191020 36 0 3.2 9.7 0.00 0.00 0.00 42 1015.1
20260905190519 36 28 4.8 12.9 0.00 0.00 0.00 43 1015.2
20260905190033 36 68 8.0 14.5 0.00 0.00 0.00 42 1015.1
20260905185520 36 20 8.0 16.1 0.00 0.00 0.00 42 1015.2
20260905185018 36 25 6.4 16.1 0.00 0.00 0.00 44 1015.3
20260905184545 36 336 1.6 9.7 0.00 0.00 0.00 42 1015.3
20260905184016 36 334 4.8 12.9 0.00 0.00 0.00 41 1015.3
20260905183517 36 15 4.8 20.9 0.00 0.00 0.00 42 1015.4
20260905183041 36 5 4.8 20.9 0.00 0.00 0.00 42 1015.5
20260905182521 36 73 3.2 9.7 0.00 0.00 0.00 45 1015.6
20260905182023 36 316 4.8 11.3 0.00 0.00 0.00 46 1015.6
20260905181543 36 240 3.2 11.3 0.00 0.00 0.00 45 1015.7
20260905181017 36 269 6.4 11.3 0.00 0.00 0.00 45 1015.7
20260905180518 36 248 4.8 9.7 0.00 0.00 0.00 44 1015.8
20260905180040 36 0 0.0 12.9 0.00 0.00 0.00 44 1015.8
20260905175521 36 49 4.8 12.9 0.00 0.00 0.00 46 1015.8
20260905175015 36 234 8.0 11.3 0.00 0.00 0.00 44 1015.9
20260905174536 36 253 4.8 11.3 0.00 0.00 0.00 45 1016.0
20260905174018 35 263 3.2 9.7 0.00 0.00 0.00 45 1016.0
20260905173516 35 320 3.2 11.3 0.00 0.00 0.00 45 1016.0
20260905173042 35 356 4.8 12.9 0.00 0.00 0.00 47 1016.0